Regional Weather Roundup
Issued by NWS

Home | Current Version | Previous Version | Graphics & Text | Print | Product List | Glossary On
Versions: 1 2 3 4 5 6 7 8 9 10 11 12 13 14 15 16 17 18 19 20 21 22 23 24 25 26 27 28 29 30 31 32 33 34 35 36 37 38 39 40 41 42 43 44 45 46 47 48 49 50
000
ASUS43 KFSD 240710
RWRSD

WEATHER ROUNDUP FOR SOUTH DAKOTA
NATIONAL WEATHER SERVICE SIOUX FALLS SD
100 AM CST TUE JAN 24 2017

NOTE: "FAIR" INDICATES FEW OR NO CLOUDS BELOW 12,000 FEET WITH NO
SIGNIFICANT WEATHER AND/OR OBSTRUCTIONS TO VISIBILITY.


SDZ001>005-009-010-012>017-240800-
NORTHWEST AND NORTH CENTRAL SOUTH DAKOTA

CITY           SKY/WX    TMP DP  RH WIND       PRES   REMARKS
BUFFALO          N/A     24  20  84 NE7       29.68F WCI  16
FAITH            N/A     25  24  96 N8        29.74R WCI  16
MOBRIDGE       CLOUDY    28  23  81 NE8       29.77F WCI  20
$$

SDZ012>016-024>037-041>051-057-063-072>074-240800-
SOUTHWEST AND SOUTH CENTRAL SOUTH DAKOTA

CITY           SKY/WX    TMP DP  RH WIND       PRES   REMARKS
RAPID CTY ARPT CLOUDY    23  21  92 N13       29.71R FOG     WCI  11
PIERRE         CLOUDY    29  26  89 E7        29.75S WCI  22
CUSTER         CLOUDY    22  19  89 N3        29.59R
ELLSWORTH AFB  FOG       23  23 100 NW10      29.71S VSB 7/8 WCI  12
PHILIP         CLOUDY    27  27 100 N12       29.73S FOG     WCI  17
PINE RIDGE     CLOUDY    25  25 100 NE12      29.67S FOG     WCI  14
SPEARFISH      FOG       21  19  93 NW5       29.72R VSB 1/2 WCI  15
WINNER         CLOUDY    32  29  88 E7        29.72F WCI  26
$$

SDZ004>011-016>023-039-040-240800-
NORTHEAST SOUTH DAKOTA

CITY           SKY/WX    TMP DP  RH WIND       PRES   REMARKS
ABERDEEN       LGT SNOW  29  25  85 N5        29.83F FOG     WCI  24
WATERTOWN      CLOUDY    29  27  92 CALM      29.80R
BROOKINGS      CLOUDY    29  27  92 S7        29.79F WCI  22
SISSETON         N/A     32  29  88 CALM      29.84S
$$

SDZ017-020-022-023-036>040-048>070-240800-
SOUTHEAST SOUTH DAKOTA

CITY           SKY/WX    TMP DP  RH WIND       PRES   REMARKS
SIOUX FALLS    CLOUDY    32  30  92 SE9       29.80F WCI  24
HURON          CLOUDY    31  29  92 E5        29.80S WCI  26
CHAMBERLAIN    CLOUDY    32  31  97 E6        29.75F WCI  26
MITCHELL       CLOUDY    32  30  92 E8        29.79F WCI  25
YANKTON        CLOUDY    30  28  93 E8        29.78S WCI  23
$$

ABBREVIATIONS USED IN REMARKS
   TC - TEMPERATURE IN CELSIUS
  WCI - WIND CHILL INDEX
   HX - HEAT INDEX
  VSB - VISIBILITY




USA.gov is the U.S. government's official web portal to all federal, state and local government web resources and services.